* Astronomy

Members Login
Post Info TOPIC: Comet P/2003 S2 (NEAT) = P/2010 P5


L

Posts: 131433
Date:
Comet P/2003 S2 (NEAT) = P/2010 P5
Permalink  
 


Orbital elements:
P/2003 S2 (NEAT) = P/2010 P5
Epoch 2011 Mar. 20.0 TT = JDT 2455640.5
T 2011 Mar. 3.18648 TT MPC
q 2.4560144 (2000.0) P Q
n 0.13113841 Peri. 283.88978 +0.97100079 -0.19883578
a 3.8369202 Node 87.70344 +0.23599637 +0.88600032
e 0.3598995 Incl. 7.63454 -0.03825161 +0.41888873
P 7.52
From 289 observations 2003 Aug. 1-2010 Aug. 17

MPEC 2010 - Q08


__________________
Page 1 of 1  sorted by
 
Quick Reply

Please log in to post quick replies.



Create your own FREE Forum
Report Abuse
Powered by ActiveBoard